Satellite: CO-58
Catalog number: 28895
Epoch time:      06242.71333312
Element set:    0524
Inclination:      098.1556 deg
RA of node:       139.7989 deg
Eccentricity:    0.0017208
Arg of perigee:   301.9347 deg
Mean anomaly:     058.0188 deg
Mean motion:   14.59439194 rev/day
Decay rate:       1.52e-06 rev/day^2
Epoch rev:           04472
Checksum:              332

Satellite: NCUBE2
Catalog number: 28897
Epoch time:      06242.68268432
Element set:    0113
Inclination:      098.1536 deg
RA of node:       139.7488 deg
Eccentricity:    0.0016797
Arg of perigee:   303.9213 deg
Mean anomaly:     056.0379 deg
Mean motion:   14.59595308 rev/day
Decay rate:       1.35e-06 rev/day^2
Epoch rev:           03699
Checksum:              341

/EX






More information about the Keps mailing list